Wind_Speed
13 14 15 16 16 17 18 18 19 19 19 19 19 19 18 18 18 18 18 18 18 18 17 16 15 14 14 14 13 13 12 12 10 7 5 6 7 7 8 8 7 7 7 7 6 5 4 4 6 7 7 7 7 9 10 9 11 12 12 11 10 9 8 7 7 7 8 6 4 3 3 4 5 5 6 7 7 7 7 7 6 6 6 5 6 6 4 4
13 14 15 15 16 17 17 18 18 19 19 19 19 19 18 18 19 19 19 19 18 18 17 17 16 14 13 12 12 12 11 11 10 8 6 6 6 7 8 8 7 7 8 7 6 5 4 3 5 8 8 7 8 10 10 9 9 10 13 12 8 8 8 7 7 8 6 6 4 1 2 3 4 5 6 6 6 7 7 7 6 5 4 3 3 4 4 3
12 13 14 15 16 16 17 18 18 19 19 19 19 19 19 19 19 19 19 19 19 18 18 17 16 14 13 12 12 11 11 10 9 7 6 6 5 7 9 8 7 7 8 7 6 6 5 4 5 7 9 9 9 10 10 10 9 9 12 11 8 8 9 8 7 8 6 6 5 2 1 2 4 6 6 6 6 6 6 7 7 5 3 2 2 2 3 2
12 13 14 14 15 16 17 18 18 19 19 20 20 20 20 19 19 20 20 20 19 19 18 17 16 15 13 12 11 11 11 10 8 7 6 6 5 7 9 9 8 7 8 7 7 6 5 4 5 6 9 10 10 10 10 10 10 11 10 8 8 7 7 7 6 8 7 6 7 3 2 2 4 6 6 7 7 6 6 6 7 6 5 3 1 1 2 1
11 12 12 13 14 14 15 16 17 18 19 20 20 21 20 20 20 20 20 20 20 20 19 18 17 15 14 12 11 10 10 10 9 8 7 6 5 6 9 9 8 7 7 8 7 6 6 5 6 6 8 9 9 10 9 10 12 11 9 8 8 5 5 5 5 8 7 7 7 4 3 3 4 5 6 7 7 6 7 7 6 6 5 3 2 1 1 1
9 10 11 11 12 13 14 15 16 16 18 19 20 21 21 21 20 20 20 20 20 20 20 19 17 16 14 13 11 10 10 10 9 9 8 7 6 6 8 9 8 8 7 8 8 7 7 6 7 7 7 8 8 9 8 10 12 8 7 8 7 4 3 3 5 9 8 8 8 5 4 5 4 4 5 7 7 7 7 7 7 5 4 3 2 1 1 1
8 9 9 10 11 12 13 14 14 15 16 18 19 20 21 21 21 20 20 20 20 20 20 20 18 17 15 13 11 11 11 11 9 9 8 8 7 7 8 8 9 8 7 8 8 8 8 8 7 8 7 7 7 9 9 10 11 8 7 8 6 4 2 2 4 11 10 9 8 5 6 5 5 5 5 7 7 7 7 7 7 5 4 3 2 1 1 1
7 8 9 10 10 11 12 13 14 14 15 16 17 19 20 21 21 21 20 20 20 21 21 20 19 17 15 13 12 11 11 10 10 9 8 8 8 9 9 8 9 9 8 8 8 9 9 9 8 8 9 8 8 9 9 9 9 9 9 8 6 4 2 3 3 13 11 9 8 6 7 7 6 6 6 8 7 8 7 7 6 5 4 3 2 1 1 1
7 8 9 10 11 12 12 13 14 15 15 15 16 17 19 20 21 22 21 21 20 21 21 21 20 17 15 13 12 12 11 10 10 10 9 8 9 9 10 9 9 9 9 8 8 10 10 9 8 9 10 10 9 9 10 9 8 10 10 9 8 6 4 1 2 10 9 7 8 7 8 8 7 7 7 8 8 7 7 7 6 5 4 2 1 1 1 1
9 10 10 11 12 13 13 14 15 15 15 15 15 16 17 18 20 22 22 21 21 21 21 21 21 19 16 13 12 12 11 11 11 10 9 8 9 9 10 10 9 9 10 8 8 10 11 11 10 10 11 11 10 9 10 11 11 12 12 11 10 9 7 3 3 7 7 7 8 7 9 8 8 7 6 8 7 7 8 7 7 5 4 2 1 1 1 1
11 11 12 13 13 14 15 15 16 16 15 15 16 16 16 17 19 21 22 22 22 21 22 22 21 20 17 13 12 11 11 11 11 10 9 8 8 9 10 10 10 10 10 8 9 11 12 12 11 10 11 11 11 11 11 12 12 13 12 11 11 11 10 7 6 6 7 9 9 9 10 9 9 8 7 8 8 7 8 8 6 5 4 3 2 2 2 1
13 13 14 14 15 15 16 16 17 16 16 16 16 16 16 17 18 20 22 22 22 21 22 22 22 20 17 14 12 11 11 11 10 10 9 7 7 8 9 10 11 11 9 9 10 11 12 13 12 11 12 12 12 12 11 11 11 11 11 10 10 10 11 10 9 8 9 10 10 11 12 11 10 9 9 9 9 9 9 8 7 6 4 4 3 2 2 2
14 15 15 16 16 17 17 17 18 17 16 16 16 16 16 16 18 20 22 22 22 22 22 23 22 21 18 14 12 11 11 11 10 9 8 6 5 6 8 10 11 11 11 10 11 12 12 12 12 12 13 13 14 13 12 11 11 11 11 9 7 8 10 11 11 10 11 12 12 13 13 12 12 11 10 10 9 9 9 9 8 7 5 4 4 3 3 2
17 17 17 17 17 18 18 18 18 17 16 17 16 16 16 17 18 19 22 22 22 22 22 23 22 21 18 15 12 11 10 10 9 9 8 7 5 5 6 9 10 11 12 12 12 13 13 13 13 12 12 13 14 13 12 12 11 10 7 5 5 7 9 10 11 12 13 14 15 15 14 14 12 11 10 9 10 9 9 9 8 7 6 5 4 4 3 1
18 18 18 18 18 19 19 19 19 18 17 17 17 17 17 17 18 19 21 22 22 22 22 23 22 21 19 15 12 10 10 9 9 8 8 7 6 5 5 7 9 10 12 12 12 13 13 13 12 11 12 14 13 11 10 10 10 8 4 3 5 7 8 9 10 11 13 15 17 17 16 15 13 11 10 9 9 9 9 9 9 9 7 7 5 4 3 2
19 19 18 19 19 19 19 19 19 19 18 17 17 17 17 18 18 19 21 22 22 22 23 23 22 21 18 14 12 10 10 10 9 8 7 7 6 5 5 5 7 9 11 11 11 13 13 13 13 12 13 13 11 10 8 8 8 6 5 5 5 6 6 6 7 8 11 14 18 18 16 16 14 12 11 10 10 9 10 10 9 10 9 8 6 5 4 4
19 19 19 18 19 19 20 20 20 19 18 18 18 18 18 19 19 20 21 22 22 23 23 23 22 21 17 14 12 10 10 10 9 8 7 6 5 5 4 4 4 6 9 10 11 13 13 13 13 13 13 12 12 12 8 7 9 8 8 7 6 6 5 5 6 6 8 12 17 18 16 15 15 14 13 12 11 10 10 10 9 11 10 8 7 6 6 6
20 20 20 19 18 18 19 19 20 19 18 18 19 19 19 19 20 21 21 22 22 23 23 23 23 20 17 14 11 10 10 10 8 8 7 5 4 4 4 3 3 4 7 10 12 12 12 13 13 13 14 14 14 14 10 10 13 12 10 10 8 7 6 5 5 5 7 11 15 17 17 16 16 16 15 14 12 11 11 10 9 10 10 9 8 8 7 7
21 21 21 20 18 18 18 19 20 20 19 19 19 19 20 20 21 21 22 22 23 23 23 23 22 20 17 14 10 9 9 8 8 7 6 5 4 4 3 2 1 2 5 9 11 12 12 12 12 13 15 15 15 16 14 13 14 14 12 10 9 8 7 7 7 6 8 10 12 14 15 17 19 17 15 15 13 11 12 11 11 11 10 10 10 9 8 8
23 23 22 22 20 19 19 19 20 20 20 20 20 20 21 21 22 22 23 23 23 23 23 23 22 20 17 14 10 8 8 7 7 6 6 5 3 3 3 2 1 1 3 8 11 12 12 12 14 15 17 18 17 18 18 15 12 12 10 9 9 8 8 9 8 8 9 10 10 10 8 11 17 14 11 13 14 11 11 12 12 12 11 10 10 10 10 9
25 25 25 25 24 22 21 20 21 22 22 21 21 21 22 22 23 23 24 24 23 23 23 22 21 19 16 14 10 8 8 7 6 6 6 5 3 3 2 2 1 1 2 7 11 12 13 14 16 18 19 20 20 19 18 13 10 9 8 8 8 8 9 10 9 8 8 9 9 9 6 5 10 10 6 10 12 9 9 10 11 11 10 10 10 11 11 10
28 28 28 27 27 26 24 23 23 24 24 24 23 23 23 23 24 24 24 24 24 23 22 21 20 18 16 13 10 8 7 7 6 6 6 5 3 3 3 3 1 1 1 6 11 13 14 15 17 19 20 20 18 16 14 10 9 9 9 8 7 8 10 11 10 9 8 8 8 8 8 4 6 7 5 7 9 8 8 9 10 10 10 9 10 11 11 10
31 30 30 30 29 28 27 26 25 25 26 26 25 24 25 25 25 25 25 24 23 22 21 20 19 17 15 12 9 7 6 5 5 5 5 5 4 3 3 3 2 1 2 7 12 15 16 17 18 18 18 17 15 13 11 9 10 10 10 8 8 9 10 10 9 9 8 9 8 7 8 7 6 6 5 5 6 7 7 8 9 11 11 10 10 10 10 10
30 30 30 30 30 29 29 28 27 27 27 27 26 26 26 26 25 25 24 24 23 21 20 19 18 16 13 11 9 8 6 5 4 4 4 5 5 4 3 3 3 3 3 7 13 16 17 16 16 16 15 14 13 12 11 11 10 8 10 10 10 10 11 11 10 11 8 8 10 10 9 8 7 6 5 5 6 7 8 8 9 11 12 11 10 11 11 11
26 26 26 27 27 27 28 28 28 28 28 29 28 27 27 26 25 25 24 23 22 20 19 17 16 14 12 11 9 7 6 5 4 4 4 4 4 4 3 3 4 5 5 7 11 13 12 12 12 12 11 9 10 10 10 11 8 6 11 13 12 12 12 12 12 11 7 7 9 10 9 9 9 8 6 6 7 8 9 10 10 10 11 12 13 14 13 12
22 22 22 22 23 23 24 25 25 26 28 29 28 26 26 26 25 24 22 22 21 19 18 16 14 12 11 10 8 7 6 5 4 3 4 5 5 5 3 4 6 7 6 7 8 7 7 8 9 9 7 6 7 7 9 11 8 5 13 15 13 13 12 12 13 10 8 10 10 11 11 9 9 11 10 8 8 8 9 10 10 10 11 12 14 16 15 14
20 19 19 20 20 20 20 21 22 23 24 26 26 25 25 25 24 23 21 20 20 18 16 15 13 11 10 9 8 7 7 5 4 4 4 5 6 6 5 7 8 8 8 8 8 6 5 7 7 7 6 5 6 5 7 12 11 8 15 15 13 13 11 12 11 9 11 13 12 12 13 10 9 12 13 12 10 9 10 10 10 10 11 12 13 14 15 16
19 18 18 18 18 18 18 19 19 20 21 23 23 23 23 23 23 21 19 20 19 16 15 14 12 11 9 9 8 7 7 6 6 6 5 5 5 6 7 8 9 9 9 10 10 9 7 7 7 8 6 4 8 8 8 12 12 9 11 11 10 10 10 11 10 7 8 7 9 12 12 12 11 12 14 15 14 11 10 10 10 10 10 11 12 12 13 16
18 17 16 16 16 16 17 17 17 18 18 19 20 20 21 22 21 20 18 19 18 16 15 14 13 11 9 8 6 5 6 6 6 6 5 5 6 6 7 8 10 11 10 11 11 9 8 8 8 9 9 8 9 7 6 9 10 9 9 9 10 11 10 9 7 5 3 1 6 10 11 12 11 12 15 16 16 15 12 11 10 11 11 11 11 11 11 14
16 15 15 14 14 15 15 16 16 16 16 17 18 17 18 20 20 19 18 18 18 16 15 15 14 12 9 7 5 4 5 5 6 7 6 6 6 7 8 9 10 12 11 11 11 9 8 8 8 9 9 8 6 3 2 4 6 7 8 7 8 10 9 6 4 2 1 2 7 9 9 10 10 11 15 15 16 17 14 13 12 11 12 12 11 11 10 11
14 15 14 13 13 13 14 15 15 15 16 16 16 15 16 18 18 18 18 18 17 17 16 15 13 11 9 7 5 4 4 5 6 7 8 8 7 8 9 9 10 11 10 10 11 9 6 6 6 7 7 5 3 1 1 2 3 3 4 4 4 5 5 3 3 2 3 5 9 9 9 7 8 10 12 15 17 18 17 15 14 12 12 12 12 11 10 10
14 14 14 14 14 14 15 15 16 16 16 16 15 14 14 15 16 17 17 17 18 17 16 14 13 12 9 8 7 5 5 5 6 7 9 9 9 9 10 10 11 10 7 7 9 8 7 7 7 6 6 4 3 1 2 3 4 2 2 3 3 4 4 3 5 5 5 8 10 11 10 7 8 10 11 13 16 19 19 17 16 15 13 13 13 12 11 10
14 14 14 14 15 15 15 16 17 17 17 17 16 15 14 14 15 16 17 18 19 18 16 15 14 12 11 9 8 7 6 6 6 7 9 10 11 10 9 9 11 11 8 8 10 9 7 7 7 7 5 4 3 1 3 3 4 3 3 3 3 5 5 3 6 5 5 9 11 12 11 8 8 10 11 13 15 17 18 18 18 17 16 15 14 13 12 11
14 14 14 15 15 15 16 17 18 18 18 18 17 16 14 14 15 17 19 19 18 18 17 16 15 14 13 11 10 9 7 7 7 7 8 11 11 10 9 8 11 12 10 10 11 11 9 6 5 7 6 4 4 3 4 4 4 2 2 3 4 5 5 3 6 6 6 10 10 10 10 8 8 9 11 13 15 15 16 17 18 18 18 17 17 16 15 13
15 15 15 15 15 16 16 17 18 18 19 19 18 17 15 14 16 19 20 18 17 18 18 16 16 15 15 13 11 10 9 8 7 6 7 11 12 11 10 11 12 12 12 11 9 11 12 8 7 7 6 5 4 4 4 3 3 1 1 1 3 4 5 6 7 7 7 8 8 8 8 8 9 9 11 13 14 14 14 15 16 17 18 18 18 18 18 16
15 15 15 15 15 16 16 17 17 18 18 18 18 17 16 17 18 19 19 18 18 18 17 17 17 17 16 15 13 11 10 9 8 7 7 10 12 12 12 13 13 13 13 13 11 9 9 8 8 7 6 6 5 5 4 3 2 1 1 1 2 2 2 2 4 6 5 5 6 8 8 8 9 9 10 12 12 13 13 13 14 15 17 18 19 20 19 18
13 13 13 14 14 15 16 16 16 17 17 18 18 18 18 18 18 18 18 18 18 18 18 18 19 18 18 16 15 13 11 9 8 8 8 9 12 13 13 13 12 13 13 13 13 12 10 10 11 9 8 7 7 6 5 4 3 2 2 3 2 1 1 2 2 5 5 4 6 7 6 7 8 8 10 10 11 11 11 11 12 13 14 16 18 20 21 20
11 12 12 13 13 14 15 15 16 16 17 17 18 18 18 19 17 18 18 18 18 18 19 20 20 20 18 17 17 15 12 11 10 9 9 10 12 13 12 13 12 12 12 11 11 11 11 11 11 11 10 10 9 8 6 5 4 4 4 4 3 2 1 2 2 3 4 4 6 6 6 8 8 9 10 10 10 10 11 11 11 11 12 13 14 17 20 22
12 12 13 13 14 14 14 14 15 16 16 16 17 17 18 17 16 17 17 17 17 18 20 21 21 20 20 19 19 16 13 13 12 10 10 11 13 13 13 13 13 12 13 12 11 11 13 11 11 12 12 11 11 9 9 8 6 6 6 5 4 3 2 2 3 3 3 4 6 5 6 7 7 8 9 10 10 11 11 12 11 11 11 11 11 13 17 21
13 13 14 15 16 16 15 15 15 15 16 16 17 17 17 17 16 16 17 17 17 17 19 21 21 22 22 22 21 19 17 15 13 12 13 12 12 13 14 14 13 13 14 14 13 14 15 14 13 14 12 11 13 12 12 12 9 8 8 7 6 4 4 4 4 4 4 5 6 5 5 8 8 8 9 9 11 11 11 11 12 12 12 11 11 11 13 16
15 15 16 16 17 18 18 17 16 16 16 16 16 17 17 18 17 17 17 17 18 18 18 20 22 23 23 23 23 21 19 17 15 14 14 13 13 15 17 16 15 15 15 16 15 15 16 15 15 15 11 12 15 14 14 14 11 9 9 8 7 6 5 4 4 6 5 6 7 6 6 10 11 10 9 10 10 10 10 11 11 12 12 12 12 12 12 13
17 18 18 18 19 20 20 19 18 17 17 16 16 17 17 18 19 18 17 18 19 18 18 20 22 23 24 25 25 22 20 19 18 16 14 14 16 18 18 18 17 16 16 17 16 16 16 16 16 16 14 14 15 13 15 16 14 12 10 9 9 7 6 5 6 7 7 7 8 8 7 10 11 11 11 11 11 11 11 11 12 12 13 13 13 12 12 13
20 20 20 20 20 21 21 21 20 19 18 17 17 17 17 18 19 19 18 18 19 19 19 20 22 24 26 26 25 23 23 21 19 18 17 17 18 19 19 18 18 17 17 18 18 17 16 17 17 17 15 16 15 15 18 19 16 14 12 10 9 9 8 8 8 8 8 8 9 9 9 10 11 12 12 11 11 12 12 13 13 13 13 13 14 14 13 13
22 22 22 22 23 23 22 21 21 20 19 18 18 17 18 19 20 20 20 19 19 19 19 20 23 25 26 26 26 25 24 23 22 21 20 19 20 20 19 20 20 18 18 19 19 18 18 18 18 17 16 16 15 16 18 18 15 14 13 11 10 10 9 9 9 8 8 9 10 10 9 9 10 12 13 12 11 12 13 14 14 14 13 14 14 14 14 14
24 24 25 24 24 23 23 22 21 21 20 19 19 18 19 19 20 21 21 20 20 19 20 21 23 25 26 27 27 27 25 24 24 22 21 21 21 21 21 21 21 20 20 20 20 20 19 19 18 18 17 16 15 15 15 15 14 13 12 11 11 12 10 10 10 10 11 11 12 12 10 9 12 14 14 13 12 12 13 14 15 15 14 14 14 15 15 15
26 26 26 25 25 24 23 23 22 22 21 21 20 20 20 21 21 22 23 22 20 20 21 22 23 25 27 27 28 28 27 27 26 24 23 23 23 23 22 22 22 22 22 22 22 21 21 20 19 20 19 17 15 14 12 12 13 13 13 12 12 13 12 12 13 14 15 14 14 15 14 15 18 17 14 13 12 12 13 14 15 15 15 15 15 15 16 16
28 28 27 27 27 26 25 24 24 23 23 23 22 22 22 22 22 23 24 23 22 21 22 23 24 25 27 28 28 29 29 29 27 26 25 25 25 24 23 22 22 22 24 24 24 23 22 21 20 21 21 20 18 15 12 13 14 14 15 14 14 16 16 16 16 17 17 17 17 19 17 17 19 19 16 14 12 12 13 14 15 16 16 16 16 16 16 17
30 30 29 29 29 28 27 26 26 26 25 25 24 23 23 24 23 24 25 24 23 23 23 24 25 26 26 27 29 30 31 30 29 28 27 27 26 26 25 24 22 23 24 25 25 24 22 22 22 21 21 22 20 18 17 16 16 16 17 17 17 18 19 19 20 20 20 20 21 22 20 19 21 21 18 14 12 13 13 14 15 16 17 17 17 17 17 17
31 32 32 31 31 30 30 29 28 28 27 26 26 25 25 25 25 25 25 25 25 24 24 25 26 25 26 27 29 31 32 32 31 30 29 28 28 27 27 26 24 23 24 24 25 23 22 24 24 21 21 22 22 21 21 20 19 19 20 20 20 21 22 22 23 23 23 23 24 24 23 23 23 21 19 16 13 13 15 15 16 16 18 19 19 19 19 18
34 34 34 34 33 32 32 31 29 29 28 27 27 26 26 26 27 26 26 26 27 26 26 26 26 25 26 27 29 31 32 33 33 32 30 30 29 28 28 28 26 24 23 24 25 23 23 26 25 21 22 25 24 23 24 23 23 23 23 22 22 22 23 24 25 25 25 25 25 25 24 24 23 21 22 20 15 13 15 16 17 17 18 20 21 21 21 20
35 36 36 35 35 34 34 32 31 30 30 29 28 28 28 27 27 27 27 27 28 27 27 27 26 26 26 28 31 31 31 33 34 33 32 32 31 30 29 29 28 26 25 26 26 24 25 27 25 23 24 26 25 24 24 24 25 25 24 23 22 22 23 24 25 25 25 24 25 24 23 24 23 22 23 23 18 16 15 16 18 19 19 19 20 22 22 22
35 36 36 36 36 35 35 34 32 31 30 29 30 29 29 28 28 28 29 28 28 28 27 27 28 27 27 29 31 31 31 33 35 34 34 33 32 32 31 30 30 28 28 27 27 27 28 27 25 25 25 27 27 25 24 26 27 27 25 22 22 22 22 23 23 23 23 23 23 23 23 23 23 22 24 24 21 19 17 17 19 20 20 20 20 20 22 22
Wind_Direction
41 37 33 29 27 27 26 25 24 22 21 19 17 16 14 13 13 13 12 12 11 10 8 7 5 2 360 356 355 353 354 359 358 345 310 275 261 256 258 258 249 238 232 228 222 215 210 189 173 173 173 161 138 127 130 136 140 146 157 163 169 169 164 165 165 162 160 167 168 153 142 134 136 136 139 142 139 135 127 124 124 125 131 138 135 121 119 127
36 33 29 26 25 24 24 24 23 21 19 17 15 13 11 10 10 9 9 9 9 8 6 4 3 0 357 353 350 346 344 346 346 343 329 298 270 254 257 259 252 240 233 229 222 218 210 192 181 170 164 159 144 135 132 131 137 155 165 167 170 168 169 174 169 168 174 172 167 138 123 127 131 132 134 139 139 138 130 126 124 123 132 142 148 134 130 132
31 28 26 24 23 23 23 22 21 20 18 15 13 11 9 8 7 6 6 6 6 5 4 2 359 357 354 350 346 343 339 334 330 330 329 312 280 255 255 256 253 243 235 229 222 219 209 202 196 175 164 161 154 147 140 137 136 150 160 162 169 170 173 183 184 183 189 185 178 159 128 128 124 130 133 139 143 140 137 136 135 138 143 144 161 151 143 140
26 24 24 23 22 21 21 20 19 17 16 14 12 10 8 6 5 4 4 3 3 2 1 359 357 354 351 348 344 341 336 330 321 317 320 316 291 264 256 255 254 248 238 227 220 217 207 208 207 187 167 160 160 157 149 145 141 143 151 152 156 163 172 183 202 200 196 193 189 173 148 140 128 139 144 148 150 148 152 152 150 156 155 145 153 162 157 147
22 21 20 20 19 18 17 16 15 14 13 11 10 9 7 5 4 3 2 2 1 360 359 356 354 351 348 346 343 340 336 330 319 309 302 299 296 273 260 256 253 252 245 229 219 211 203 205 205 196 173 159 159 161 157 153 147 141 141 142 140 146 178 196 222 208 195 187 188 186 168 155 141 148 150 155 159 159 164 159 159 166 158 146 147 161 168 130
16 15 14 14 12 10 10 10 9 8 8 8 7 7 6 5 3 2 1 1 360 358 356 354 351 348 345 343 341 339 336 331 321 308 292 278 276 270 263 258 252 252 249 232 219 207 201 202 199 198 179 159 158 162 161 159 154 145 138 137 129 133 179 239 233 197 185 179 183 194 182 167 157 155 151 156 162 165 167 161 161 166 155 142 136 152 172 133
6 3 2 2 1 0 1 0 360 360 0 2 2 3 3 3 2 1 359 359 358 357 355 352 349 346 342 340 338 337 334 331 326 313 294 274 261 255 258 257 251 247 246 237 220 203 201 200 195 195 178 158 162 164 163 165 163 159 153 145 130 138 170 316 229 190 179 176 183 191 183 174 165 163 159 158 163 167 167 162 160 160 149 136 135 170 194 169
350 347 346 347 348 349 349 349 349 350 352 354 356 357 359 0 0 359 357 356 356 356 355 352 348 344 341 338 336 335 333 331 330 320 301 278 259 249 249 251 249 242 239 240 223 201 200 201 193 188 179 173 175 171 165 167 174 171 165 163 154 161 190 344 217 189 183 182 189 191 182 180 173 171 168 163 166 170 169 163 159 156 149 136 142 200 213 224
332 331 332 333 335 337 338 339 340 341 344 346 348 351 354 356 357 357 355 353 353 354 353 351 348 344 340 337 334 333 333 331 329 323 309 286 265 248 244 244 243 239 235 238 226 205 200 201 195 186 184 184 180 176 169 167 190 194 180 178 174 175 190 345 195 188 193 196 197 197 189 185 180 180 177 168 168 174 175 168 163 160 155 151 167 224 226 242
319 320 322 324 327 329 330 331 332 334 336 338 340 344 348 352 353 354 353 351 350 351 351 350 348 344 339 335 332 331 332 331 329 326 316 297 272 252 243 240 236 235 232 233 227 209 202 201 197 193 190 187 183 185 183 180 196 202 192 190 187 186 189 194 212 209 219 213 206 205 199 193 185 185 184 176 170 174 180 176 169 165 165 182 194 222 228 252
312 314 316 318 320 322 323 324 325 328 330 331 333 337 342 347 350 351 351 349 348 348 349 348 347 344 339 335 331 330 331 330 328 328 322 305 280 257 244 237 231 232 231 226 220 212 207 201 198 198 193 190 192 196 199 197 201 203 200 200 196 195 193 191 208 226 230 222 217 209 205 201 191 188 191 183 172 173 183 180 173 170 177 199 204 211 219 255
307 309 311 313 315 316 318 318 320 323 324 325 326 330 335 340 345 347 347 346 346 346 346 346 345 343 340 336 330 327 328 328 326 326 326 314 288 261 246 238 230 229 229 223 217 212 211 206 200 198 194 196 203 205 210 212 211 210 210 208 206 205 200 194 200 222 231 224 219 215 212 208 197 192 193 186 175 177 183 178 174 174 186 205 202 199 209 239
304 306 307 309 310 311 313 314 316 319 320 319 320 323 327 333 338 341 343 343 343 344 344 344 344 342 341 336 329 325 325 328 325 323 328 323 299 269 248 238 231 225 221 217 212 212 212 208 202 198 196 200 204 206 214 220 220 222 220 218 225 225 212 202 201 213 227 227 225 222 213 205 203 199 195 189 181 182 186 180 172 173 190 209 198 191 199 216
302 303 304 305 306 308 309 310 312 315 316 315 315 317 320 325 331 335 337 339 340 341 341 342 342 342 340 335 330 324 322 326 326 323 331 333 320 292 260 241 234 229 222 213 206 208 210 206 203 200 200 203 204 205 215 224 226 228 231 231 240 242 224 209 209 212 221 227 226 222 211 203 207 206 202 195 186 185 191 187 174 173 193 207 198 187 188 182
302 302 303 304 304 305 306 307 308 311 312 311 311 312 315 319 324 329 332 335 336 337 339 340 340 340 339 334 329 324 320 323 327 327 333 339 332 311 281 251 236 230 227 217 205 206 207 203 201 201 204 206 205 207 218 233 238 235 231 229 236 244 231 213 216 219 222 227 226 222 211 205 209 213 214 204 190 187 195 195 180 177 194 204 197 184 179 178
303 303 303 304 304 304 304 304 305 307 308 308 308 308 310 314 318 323 327 330 332 334 336 337 338 339 338 334 329 326 322 321 323 327 334 341 334 314 292 262 238 226 227 220 207 205 204 198 195 201 208 206 202 205 215 233 244 240 218 225 238 239 240 227 223 230 230 225 221 215 205 207 214 213 216 211 196 188 196 201 186 182 197 202 196 183 180 190
304 304 304 304 303 303 303 302 302 303 305 304 304 305 307 310 314 318 322 326 329 330 333 334 335 337 336 333 327 321 317 315 317 323 333 340 330 311 296 272 243 224 223 217 206 203 201 196 193 199 203 201 203 201 201 215 221 219 211 221 230 219 234 235 220 231 229 213 210 208 204 214 218 210 214 213 200 190 195 205 194 188 199 205 202 191 185 194
304 304 304 303 303 302 301 301 300 301 302 302 302 302 304 307 310 314 318 322 325 327 330 331 332 334 334 333 326 316 313 313 313 319 326 330 322 308 300 287 256 227 219 212 205 199 197 193 191 197 199 201 209 200 195 214 216 216 216 215 212 205 223 231 213 214 201 193 200 205 208 216 213 208 214 212 201 192 192 200 199 194 199 205 211 205 193 194
302 302 302 302 302 301 300 299 299 299 300 300 300 301 303 305 308 311 315 318 321 324 327 328 330 332 333 332 325 312 308 309 311 315 317 317 315 306 302 303 284 245 226 211 204 197 193 190 187 192 197 202 208 204 208 220 218 220 222 217 207 197 217 225 210 202 190 187 196 207 214 215 210 209 215 210 197 193 194 197 198 196 196 202 211 213 205 198
297 298 298 298 298 298 298 298 298 298 298 299 299 300 302 304 306 309 312 315 318 321 323 325 327 330 331 330 322 308 301 305 313 319 319 318 314 307 304 303 332 308 239 210 200 193 187 184 182 188 196 201 204 207 216 219 214 220 221 218 212 200 221 229 211 207 209 206 209 217 219 203 200 207 219 205 191 193 202 203 202 199 195 199 207 212 211 203
292 292 293 293 294 294 294 295 295 295 296 296 298 299 301 302 304 307 310 313 315 318 320 321 324 328 329 326 320 308 297 297 305 318 325 324 314 301 285 268 322 352 242 204 194 186 181 182 185 193 198 201 203 207 214 211 202 220 224 218 216 207 225 233 218 212 219 224 227 227 223 178 186 200 209 192 185 198 213 211 210 207 202 202 205 209 212 205
291 290 289 289 289 289 289 290 291 291 292 293 295 297 298 299 302 304 307 309 311 314 316 318 322 325 326 323 318 311 302 294 294 308 323 322 307 278 257 247 244 323 215 193 187 178 178 186 191 198 200 203 207 208 213 205 187 213 228 221 217 212 226 239 231 219 215 226 240 234 227 210 193 206 207 183 181 200 220 219 216 215 211 209 207 209 212 207
291 291 290 288 287 286 286 285 286 286 288 289 291 293 294 297 300 302 305 307 309 312 313 316 319 322 324 323 319 314 308 297 290 299 315 311 295 266 249 239 230 244 178 178 179 173 180 194 197 202 207 211 212 210 212 194 179 206 225 223 222 216 224 240 240 230 215 214 228 230 226 225 217 226 237 220 200 208 225 230 230 228 221 216 211 210 214 211
293 292 291 290 288 287 285 283 283 283 284 286 287 289 292 295 298 300 303 305 307 309 310 313 316 319 322 323 319 311 307 303 294 297 305 302 293 274 252 235 228 224 181 177 183 184 193 204 205 209 215 216 215 216 209 185 176 209 226 226 227 222 222 230 236 237 224 211 217 214 217 227 224 226 245 251 240 231 232 238 247 246 234 226 220 212 213 215
296 296 295 294 292 290 287 285 282 280 281 282 284 287 289 292 296 299 301 302 303 305 307 310 313 316 319 320 316 307 303 305 301 299 297 291 284 269 248 226 218 206 188 185 191 196 200 203 205 208 212 213 213 214 205 193 184 218 237 233 231 230 227 227 233 240 237 231 228 211 210 226 220 211 221 238 244 243 241 243 251 259 250 241 234 219 210 214
301 300 299 299 298 296 293 290 286 282 280 280 281 284 286 289 294 296 298 299 299 301 303 306 309 313 317 319 316 305 300 302 302 303 293 279 266 252 228 209 211 203 190 185 189 194 187 184 187 187 185 187 199 206 210 203 181 211 239 233 232 238 236 237 240 238 233 235 234 215 209 224 222 211 215 224 234 244 247 246 247 254 256 252 246 233 214 209
303 303 304 304 303 301 299 296 292 287 282 280 280 281 283 287 290 293 295 295 294 298 300 301 304 308 313 319 316 305 296 290 287 292 292 283 265 247 220 203 207 201 185 177 182 187 180 178 175 166 160 160 174 188 209 197 178 211 234 226 231 242 243 252 254 239 229 231 237 230 215 220 231 221 218 222 227 238 247 250 249 250 250 249 251 246 225 210
302 304 305 306 305 304 302 299 295 292 287 282 281 280 281 283 286 288 290 289 290 294 294 293 297 301 307 316 316 306 293 281 275 279 282 274 255 238 218 205 204 199 185 176 178 182 179 177 169 156 148 168 188 190 196 190 188 220 230 218 234 246 248 261 264 252 243 231 241 247 227 221 235 232 224 224 225 229 241 248 249 249 247 245 248 254 243 223
304 304 306 307 306 306 306 303 299 296 292 287 285 282 281 281 282 284 285 282 283 286 286 286 290 294 301 309 311 305 294 281 272 269 267 260 245 225 217 212 204 198 189 180 177 174 171 171 167 160 164 190 205 197 182 180 195 230 235 227 241 249 254 264 266 262 271 210 234 250 241 227 232 236 228 226 228 227 232 240 243 247 248 247 248 256 260 241
307 306 307 309 309 310 310 308 306 303 299 295 291 287 283 280 279 280 279 275 276 278 277 278 282 286 292 296 294 291 287 282 274 264 256 253 240 221 215 212 207 205 197 184 176 169 163 164 171 175 184 203 211 202 185 178 202 234 241 237 246 257 262 263 273 265 199 221 237 248 253 231 224 239 232 228 232 230 231 236 237 243 249 252 252 252 260 255
309 309 310 312 313 314 312 311 310 309 304 299 296 292 284 280 278 275 272 270 270 269 268 271 275 277 278 277 276 275 269 271 269 261 253 243 233 225 214 207 210 210 200 185 174 169 163 168 184 191 198 208 193 185 289 290 267 260 249 232 234 262 273 269 278 250 198 237 246 250 256 220 203 233 234 230 235 233 233 238 237 239 246 252 258 256 257 258
309 310 312 315 315 315 314 313 312 310 307 302 299 293 286 281 278 271 266 263 261 261 263 263 265 267 268 267 268 266 257 256 255 254 251 239 230 225 214 209 206 194 190 193 181 177 182 186 193 199 205 196 163 197 304 315 302 287 243 208 200 241 249 240 245 230 221 242 247 251 248 211 204 230 232 232 238 236 234 238 240 239 240 246 254 259 259 258
309 311 312 313 312 312 312 311 310 310 308 305 300 294 288 284 278 269 262 258 257 259 259 257 260 262 261 260 265 267 262 258 250 245 246 240 235 231 221 212 197 180 178 192 184 182 197 207 197 191 197 173 147 232 263 279 279 255 222 174 161 249 259 275 273 271 270 257 252 256 251 228 226 237 235 238 241 238 234 235 239 240 240 240 244 251 254 252
309 309 307 307 307 307 308 307 307 308 307 305 301 296 291 283 273 265 260 258 258 257 255 255 256 256 254 256 261 265 263 261 254 245 243 239 235 230 219 201 190 183 175 176 178 179 192 232 227 187 180 156 151 206 221 247 264 249 242 178 163 226 231 231 261 265 263 258 259 267 263 244 235 240 246 246 244 242 238 237 239 240 239 237 237 241 245 245
305 303 302 303 305 307 307 306 305 304 305 304 300 297 291 279 270 265 264 262 257 254 253 252 252 251 252 254 255 260 261 261 259 249 242 239 232 222 209 195 186 180 169 170 187 182 180 211 220 182 171 160 167 212 206 227 265 255 299 227 173 211 215 208 231 245 253 263 269 269 264 251 241 249 259 257 252 249 244 242 242 241 239 237 234 234 238 241
300 301 304 307 309 309 309 307 304 302 303 303 300 296 289 279 275 272 270 265 257 253 250 247 248 246 247 251 252 256 257 255 256 251 244 239 232 222 211 200 187 178 172 174 188 182 179 221 222 187 185 184 185 216 204 187 215 200 333 276 190 207 255 242 251 271 285 284 269 263 266 260 247 250 258 258 260 259 252 246 242 241 240 237 234 233 234 239
303 306 310 313 313 313 312 309 306 303 301 301 300 297 290 285 283 279 273 266 257 251 244 240 241 241 243 249 253 254 254 253 252 249 243 237 234 228 217 205 191 186 185 183 188 183 184 222 228 204 202 206 202 214 215 188 184 201 233 250 238 224 340 341 301 292 300 291 267 265 270 263 249 250 254 254 258 260 254 244 236 237 239 237 235 234 233 235
313 319 323 325 323 320 317 312 308 305 301 300 298 296 292 290 288 283 277 268 258 249 242 239 239 241 242 244 248 252 252 250 248 244 241 236 235 231 219 209 200 199 202 202 206 202 197 214 232 222 213 218 220 225 233 219 197 211 227 244 273 277 277 332 329 299 304 301 287 283 278 264 249 248 252 248 246 246 244 240 235 235 237 236 235 234 234 233
316 325 329 331 330 327 321 315 312 307 302 298 295 293 291 289 286 282 277 270 260 249 243 241 240 240 237 237 244 248 243 242 243 241 237 234 234 230 223 217 212 212 217 219 220 220 213 215 230 228 218 222 231 236 244 239 219 221 236 241 257 267 271 294 296 283 293 295 290 298 301 282 255 245 249 244 239 237 238 241 242 241 241 239 237 235 234 235
312 321 325 328 330 328 323 318 313 309 303 298 294 291 289 286 282 278 274 269 261 251 245 243 239 237 236 237 242 242 238 238 239 237 233 231 230 228 227 227 222 219 224 224 220 218 216 217 229 235 228 229 234 229 231 237 228 224 238 246 247 246 247 258 273 284 299 297 289 293 303 287 264 252 251 243 239 239 240 245 249 250 249 246 244 240 238 237
307 314 319 322 325 325 323 319 314 310 305 300 295 291 287 284 280 276 273 267 260 251 245 242 239 237 237 237 237 238 237 236 234 233 232 230 229 228 229 231 230 228 229 227 222 220 219 219 229 238 234 232 235 230 227 234 234 230 239 252 255 249 245 252 276 286 287 294 295 294 288 277 268 262 257 246 241 241 243 248 253 255 256 253 251 248 245 243
303 308 312 316 319 320 319 317 314 310 306 303 298 292 286 283 279 275 271 267 261 253 243 238 237 237 236 237 238 238 236 233 233 231 228 225 226 228 229 231 232 234 235 232 227 226 223 220 225 233 234 237 243 239 231 231 233 235 237 244 254 263 265 267 277 282 283 286 288 290 290 284 277 271 265 257 250 247 248 251 254 256 258 258 256 252 249 248
301 305 308 311 313 314 313 312 311 308 306 304 298 292 286 281 278 274 269 265 263 257 246 238 234 233 234 237 238 237 234 234 234 230 226 224 226 229 231 233 235 237 236 232 229 228 226 225 228 233 236 242 246 242 236 233 233 238 240 241 254 266 268 267 270 276 285 288 285 292 301 295 284 279 278 272 264 257 255 254 254 256 258 259 258 256 252 250
299 302 304 306 307 307 306 306 306 305 305 302 297 292 284 279 276 272 268 264 263 261 253 241 234 233 233 235 236 237 235 234 233 230 227 224 226 231 233 235 239 240 235 230 229 230 230 230 234 236 236 239 241 237 235 233 231 236 241 244 254 262 263 268 266 263 276 285 284 292 299 289 279 284 288 283 274 267 260 256 255 257 259 260 259 259 258 254
297 298 300 301 302 302 301 300 301 301 301 299 295 290 283 277 273 270 267 264 262 262 256 246 238 234 233 233 234 236 235 234 233 231 228 226 227 230 234 238 240 239 236 232 232 235 237 236 239 242 239 237 238 235 231 229 227 233 240 247 257 262 263 271 273 269 275 280 278 282 282 271 275 286 291 289 283 275 266 259 256 256 258 258 258 259 260 258
295 296 297 298 298 297 296 296 296 296 296 295 293 288 281 275 270 268 266 263 260 259 255 250 244 236 232 231 232 234 235 234 233 230 227 226 227 228 232 236 238 237 237 236 237 239 243 245 247 250 248 242 243 246 241 236 237 240 245 252 262 266 268 275 281 280 280 282 281 279 276 272 276 283 287 291 289 279 271 264 259 255 253 254 255 256 257 259
293 293 294 294 294 294 293 292 291 292 291 290 289 286 279 273 269 265 264 262 260 256 254 252 247 240 235 231 230 231 233 234 233 230 227 227 228 228 230 233 235 237 237 237 239 242 246 251 251 252 253 250 252 259 255 248 249 253 258 264 270 275 276 277 279 279 280 283 281 279 277 273 275 280 282 284 284 280 275 269 262 257 252 251 253 254 255 257
292 292 292 292 292 292 291 289 288 287 286 286 285 282 277 272 268 264 262 261 259 255 253 251 248 244 239 234 230 230 231 233 232 231 229 228 228 229 230 232 234 236 237 238 241 242 245 250 249 247 250 252 253 256 256 256 259 262 266 269 271 274 275 275 275 275 277 278 277 277 276 271 272 278 279 275 276 279 280 273 265 258 253 252 252 253 253 254
291 291 291 291 291 290 289 287 285 283 282 282 280 277 273 271 267 264 261 259 257 254 251 249 247 245 242 237 233 231 231 231 232 231 229 229 230 229 231 234 235 236 238 239 241 243 244 247 248 248 252 254 253 254 255 257 261 262 264 267 269 271 271 271 273 273 273 274 273 272 272 270 271 275 272 269 272 277 280 279 272 263 256 253 253 253 254 254
290 290 290 290 290 288 287 285 283 281 279 277 276 274 271 269 266 264 262 258 255 252 250 249 248 245 242 239 236 234 232 231 231 231 230 230 232 231 231 233 234 236 239 240 242 244 246 249 252 253 255 256 254 255 256 255 257 259 259 261 265 269 271 270 271 271 271 271 269 268 269 270 271 271 268 269 272 273 275 279 278 272 264 257 255 256 255 255
290 290 290 289 288 286 285 283 281 278 276 274 273 271 269 267 266 264 262 258 255 252 250 250 248 245 241 239 238 237 235 233 233 233 232 231 232 232 232 233 234 235 239 241 243 244 248 252 255 254 257 259 257 255 257 258 258 257 257 259 264 268 270 271 269 269 269 269 268 268 267 267 268 268 267 270 272 272 272 274 276 276 273 266 260 258 257 255
292 292 291 289 287 285 284 282 280 277 274 271 269 268 267 266 265 263 262 259 256 253 250 248 248 245 240 238 238 239 237 236 235 234 233 233 232 232 233 234 235 235 238 241 244 245 248 251 251 251 254 259 260 258 258 261 261 258 256 260 266 270 272 273 271 270 269 268 268 267 264 265 267 268 268 271 274 275 273 271 272 275 277 274 268 261 257 256
Height
5913 5912 5912 5911 5911 5910 5909 5908 5908 5907 5906 5905 5904 5903 5902 5901 5901 5900 5899 5898 5897 5896 5895 5894 5893 5892 5891 5891 5890 5889 5889 5888 5887 5887 5886 5886 5886 5886 5886 5886 5887 5887 5887 5887 5888 5889 5890 5891 5891 5892 5892 5892 5893 5893 5894 5894 5895 5895 5895 5896 5896 5896 5897 5897 5897 5897 5897 5897 5897 5897 5897 5897 5898 5898 5898 5898 5899 5899 5900 5900 5900 5900 5900 5900 5900 5900 5901 5901
5913 5913 5912 5911 5911 5910 5909 5909 5908 5907 5906 5905 5904 5903 5902 5901 5900 5899 5898 5897 5896 5895 5894 5893 5893 5892 5891 5890 5890 5889 5888 5888 5887 5886 5886 5886 5885 5885 5885 5885 5886 5886 5886 5887 5888 5888 5889 5890 5891 5891 5892 5892 5893 5893 5894 5895 5895 5895 5895 5896 5896 5897 5897 5897 5897 5897 5897 5897 5897 5897 5897 5898 5898 5898 5898 5899 5899 5899 5900 5900 5900 5901 5901 5901 5901 5901 5901 5901
5913 5913 5912 5911 5911 5910 5909 5908 5908 5907 5906 5905 5904 5903 5902 5901 5900 5899 5898 5897 5896 5895 5894 5893 5892 5891 5891 5890 5889 5888 5888 5887 5887 5886 5886 5885 5885 5884 5884 5884 5885 5885 5886 5886 5887 5888 5888 5889 5890 5891 5891 5892 5893 5893 5894 5894 5895 5895 5896 5896 5897 5897 5897 5897 5897 5897 5897 5897 5898 5897 5898 5898 5898 5898 5898 5899 5899 5900 5900 5900 5901 5901 5901 5901 5901 5901 5901 5901
5913 5913 5912 5911 5911 5910 5909 5908 5908 5907 5906 5905 5904 5903 5902 5901 5900 5899 5898 5897 5896 5895 5893 5892 5891 5891 5890 5889 5889 5888 5887 5886 5886 5885 5885 5884 5884 5884 5883 5884 5884 5885 5885 5886 5887 5887 5888 5888 5889 5890 5891 5892 5892 5893 5894 5894 5895 5895 5896 5896 5897 5897 5897 5897 5898 5898 5898 5898 5898 5898 5897 5898 5899 5899 5899 5899 5900 5900 5900 5901 5901 5901 5901 5901 5902 5902 5902 5902
5913 5913 5912 5912 5911 5910 5909 5908 5908 5907 5906 5905 5904 5903 5902 5901 5900 5899 5898 5897 5896 5894 5893 5892 5891 5890 5889 5889 5888 5887 5886 5885 5885 5884 5884 5884 5883 5883 5882 5883 5883 5884 5885 5885 5886 5887 5887 5887 5888 5889 5890 5891 5892 5892 5893 5894 5894 5895 5895 5896 5897 5897 5897 5898 5898 5898 5898 5898 5898 5898 5898 5898 5899 5899 5899 5899 5900 5900 5901 5901 5901 5902 5901 5901 5902 5902 5902 5902
5913 5913 5912 5912 5911 5910 5909 5908 5908 5907 5906 5905 5904 5903 5902 5901 5900 5899 5898 5897 5895 5894 5893 5891 5890 5889 5889 5888 5887 5886 5886 5885 5884 5883 5883 5883 5883 5882 5882 5882 5882 5883 5884 5885 5885 5886 5886 5887 5888 5888 5889 5890 5891 5892 5892 5893 5894 5895 5895 5895 5896 5897 5897 5897 5897 5898 5898 5898 5898 5898 5898 5898 5899 5899 5899 5900 5900 5900 5900 5901 5901 5902 5901 5902 5902 5902 5902 5902
5913 5913 5912 5911 5911 5910 5909 5908 5907 5907 5906 5905 5904 5903 5902 5901 5900 5899 5898 5896 5895 5894 5892 5891 5890 5889 5888 5887 5886 5886 5885 5884 5883 5882 5882 5882 5882 5882 5881 5881 5881 5882 5883 5884 5885 5886 5886 5886 5887 5888 5889 5890 5891 5891 5892 5893 5893 5894 5894 5895 5895 5896 5897 5897 5897 5897 5898 5897 5898 5898 5898 5898 5899 5899 5899 5900 5900 5900 5900 5901 5901 5902 5902 5902 5902 5902 5903 5902
5913 5912 5912 5911 5910 5910 5909 5908 5907 5906 5905 5904 5904 5903 5902 5901 5899 5898 5897 5896 5895 5893 5892 5891 5889 5888 5887 5886 5886 5885 5884 5883 5882 5881 5881 5881 5880 5880 5880 5880 5880 5881 5882 5883 5884 5885 5885 5886 5887 5888 5889 5890 5891 5891 5892 5893 5894 5893 5894 5894 5895 5895 5896 5896 5897 5897 5898 5897 5897 5898 5898 5898 5898 5899 5899 5899 5900 5900 5900 5901 5901 5901 5901 5901 5902 5902 5903 5902
5913 5912 5911 5911 5910 5909 5908 5907 5907 5906 5905 5904 5903 5902 5901 5900 5899 5898 5897 5895 5894 5893 5891 5890 5889 5887 5887 5886 5885 5884 5883 5882 5881 5880 5880 5879 5879 5879 5879 5880 5880 5880 5881 5882 5883 5884 5884 5885 5886 5887 5888 5889 5890 5891 5891 5893 5893 5893 5893 5894 5894 5895 5895 5896 5897 5898 5898 5897 5897 5898 5898 5898 5898 5898 5899 5899 5899 5899 5900 5900 5901 5901 5901 5901 5902 5902 5902 5902
5912 5912 5911 5910 5909 5909 5908 5907 5906 5905 5904 5903 5902 5901 5901 5899 5898 5897 5896 5895 5893 5892 5891 5889 5888 5887 5886 5885 5884 5883 5882 5881 5880 5879 5879 5878 5878 5878 5878 5879 5879 5879 5880 5881 5882 5883 5884 5884 5886 5887 5888 5889 5890 5890 5891 5891 5892 5892 5893 5893 5894 5894 5895 5896 5897 5898 5898 5897 5897 5897 5898 5897 5897 5898 5898 5899 5899 5899 5899 5900 5901 5901 5901 5901 5901 5902 5902 5902
5912 5911 5910 5909 5909 5908 5907 5906 5905 5904 5904 5903 5902 5901 5900 5899 5898 5896 5895 5894 5893 5891 5890 5889 5887 5886 5885 5884 5883 5882 5881 5881 5880 5879 5878 5877 5877 5877 5877 5878 5878 5878 5879 5880 5881 5882 5883 5884 5885 5886 5887 5888 5889 5890 5890 5891 5891 5892 5893 5893 5894 5894 5895 5895 5896 5898 5898 5898 5898 5897 5897 5897 5897 5897 5898 5899 5899 5899 5899 5900 5900 5900 5901 5901 5901 5902 5902 5902
5911 5910 5910 5909 5908 5907 5906 5905 5904 5904 5903 5902 5901 5900 5899 5898 5897 5896 5894 5893 5892 5891 5889 5888 5887 5885 5884 5883 5882 5882 5881 5880 5879 5878 5877 5876 5876 5876 5876 5877 5877 5878 5878 5880 5880 5881 5882 5883 5884 5885 5887 5888 5889 5889 5890 5890 5891 5892 5892 5893 5894 5894 5895 5895 5896 5897 5897 5897 5897 5897 5896 5896 5896 5897 5897 5898 5898 5898 5899 5899 5900 5900 5900 5901 5901 5901 5902 5902
5910 5909 5909 5908 5907 5906 5905 5904 5903 5902 5902 5900 5900 5899 5898 5897 5896 5895 5894 5893 5891 5890 5889 5887 5886 5884 5883 5882 5882 5881 5880 5879 5878 5877 5876 5875 5875 5875 5875 5875 5876 5877 5878 5879 5880 5880 5881 5882 5884 5885 5886 5887 5888 5889 5889 5890 5891 5891 5892 5893 5894 5894 5895 5894 5895 5895 5896 5896 5897 5896 5896 5895 5895 5896 5897 5897 5898 5898 5899 5899 5899 5900 5900 5901 5901 5901 5902 5902
5909 5908 5907 5907 5906 5905 5904 5903 5902 5901 5900 5899 5898 5897 5896 5896 5895 5894 5893 5892 5890 5889 5888 5886 5885 5884 5882 5881 5881 5880 5879 5878 5877 5876 5875 5874 5874 5874 5874 5874 5875 5876 5877 5878 5879 5880 5881 5882 5883 5884 5885 5886 5887 5888 5889 5890 5890 5891 5893 5894 5894 5894 5894 5894 5894 5894 5895 5895 5896 5896 5895 5894 5894 5895 5896 5897 5897 5898 5899 5899 5900 5900 5900 5901 5901 5901 5901 5902
5907 5907 5906 5905 5904 5903 5902 5901 5900 5900 5899 5898 5897 5896 5895 5894 5893 5892 5891 5890 5889 5888 5887 5885 5884 5883 5882 5880 5879 5879 5878 5878 5877 5876 5874 5874 5873 5873 5873 5874 5874 5875 5876 5877 5878 5879 5880 5881 5883 5884 5885 5885 5887 5889 5890 5891 5891 5892 5893 5894 5894 5893 5892 5893 5893 5893 5894 5894 5894 5894 5895 5894 5893 5894 5896 5896 5897 5898 5899 5899 5900 5900 5900 5901 5901 5901 5901 5902
5905 5905 5904 5904 5903 5902 5901 5900 5899 5898 5897 5896 5895 5895 5894 5893 5892 5891 5890 5889 5888 5887 5886 5884 5883 5882 5881 5880 5878 5878 5877 5877 5876 5875 5874 5873 5873 5872 5873 5873 5873 5874 5875 5876 5878 5879 5880 5881 5882 5884 5885 5886 5887 5889 5891 5892 5892 5893 5893 5893 5894 5893 5892 5893 5893 5893 5893 5893 5893 5894 5895 5894 5893 5894 5895 5896 5897 5898 5899 5899 5900 5900 5900 5901 5901 5901 5901 5902
5903 5903 5902 5902 5901 5900 5899 5898 5897 5896 5896 5895 5894 5893 5892 5891 5890 5890 5889 5888 5887 5885 5884 5883 5882 5881 5880 5879 5878 5877 5877 5876 5875 5874 5873 5873 5872 5872 5872 5872 5873 5873 5874 5875 5877 5878 5879 5881 5882 5883 5885 5886 5887 5889 5890 5891 5891 5891 5892 5893 5893 5893 5893 5893 5893 5893 5892 5892 5892 5893 5894 5894 5894 5894 5895 5896 5897 5897 5898 5899 5900 5900 5900 5901 5901 5901 5901 5902
5901 5901 5900 5900 5899 5898 5897 5896 5895 5894 5894 5893 5892 5891 5891 5890 5889 5888 5887 5886 5885 5884 5883 5882 5881 5880 5879 5878 5877 5876 5876 5875 5875 5874 5873 5872 5872 5872 5872 5872 5872 5873 5873 5874 5876 5878 5879 5880 5881 5883 5884 5885 5887 5888 5889 5890 5890 5891 5891 5892 5893 5893 5893 5893 5893 5892 5892 5892 5892 5893 5894 5894 5894 5894 5894 5895 5896 5897 5898 5899 5899 5900 5900 5901 5901 5901 5901 5902
5900 5899 5898 5898 5897 5896 5895 5894 5893 5892 5892 5891 5890 5890 5889 5888 5887 5887 5886 5885 5884 5883 5882 5881 5880 5878 5877 5877 5876 5875 5875 5875 5874 5873 5872 5872 5872 5872 5872 5872 5872 5872 5872 5873 5875 5877 5878 5879 5881 5882 5883 5884 5886 5887 5887 5887 5889 5890 5891 5892 5892 5893 5893 5893 5893 5893 5892 5892 5892 5893 5893 5893 5894 5894 5894 5894 5895 5897 5898 5898 5899 5899 5900 5900 5901 5901 5901 5902
5897 5896 5896 5895 5895 5894 5893 5892 5891 5890 5890 5889 5889 5888 5887 5887 5886 5885 5884 5884 5883 5882 5881 5880 5878 5877 5876 5876 5875 5874 5874 5874 5873 5872 5872 5871 5871 5871 5871 5871 5871 5871 5872 5873 5874 5876 5877 5878 5879 5880 5881 5882 5884 5885 5885 5887 5888 5889 5890 5891 5892 5893 5893 5892 5893 5893 5893 5893 5893 5893 5893 5893 5893 5894 5893 5894 5895 5896 5897 5898 5898 5899 5900 5900 5901 5901 5901 5902
5894 5894 5893 5892 5892 5892 5891 5891 5889 5888 5887 5887 5887 5886 5886 5885 5884 5883 5883 5882 5881 5880 5879 5878 5877 5876 5875 5875 5874 5873 5873 5873 5872 5872 5871 5871 5871 5871 5871 5871 5871 5871 5871 5872 5873 5875 5876 5876 5877 5878 5878 5880 5882 5883 5884 5886 5888 5889 5889 5890 5891 5892 5892 5892 5893 5893 5893 5893 5893 5893 5893 5893 5893 5894 5894 5894 5895 5896 5897 5898 5898 5899 5899 5900 5901 5901 5901 5901
5891 5890 5890 5889 5889 5889 5889 5888 5887 5886 5885 5885 5885 5884 5883 5883 5882 5882 5881 5880 5879 5879 5878 5877 5876 5875 5874 5873 5873 5872 5872 5872 5871 5871 5871 5870 5870 5870 5870 5871 5871 5871 5871 5872 5873 5874 5875 5875 5876 5877 5878 5879 5880 5882 5884 5886 5888 5888 5889 5890 5891 5891 5892 5892 5892 5893 5893 5894 5893 5893 5893 5893 5893 5894 5894 5894 5895 5896 5897 5897 5898 5898 5899 5900 5900 5900 5901 5901
5887 5887 5886 5886 5886 5885 5885 5885 5885 5884 5882 5882 5882 5882 5881 5881 5880 5880 5879 5878 5878 5877 5876 5875 5875 5874 5873 5872 5872 5871 5871 5871 5870 5870 5870 5870 5869 5870 5870 5870 5871 5871 5871 5871 5872 5873 5874 5874 5875 5877 5878 5879 5880 5882 5884 5886 5887 5888 5888 5889 5890 5890 5891 5891 5891 5892 5893 5893 5894 5894 5894 5894 5894 5894 5894 5894 5895 5896 5897 5897 5897 5897 5898 5899 5900 5900 5901 5901
5884 5883 5882 5882 5882 5882 5881 5881 5881 5881 5880 5879 5879 5879 5878 5878 5878 5878 5877 5876 5876 5875 5874 5874 5873 5872 5872 5871 5871 5871 5870 5870 5870 5869 5869 5869 5869 5869 5870 5870 5870 5871 5871 5871 5872 5872 5873 5874 5875 5876 5877 5879 5880 5882 5883 5885 5887 5888 5887 5888 5889 5889 5890 5890 5890 5891 5892 5893 5893 5894 5895 5895 5895 5895 5895 5896 5896 5896 5897 5897 5897 5897 5897 5898 5899 5899 5900 5900
5881 5880 5879 5878 5878 5878 5877 5877 5878 5877 5877 5876 5876 5876 5876 5875 5876 5875 5875 5874 5874 5873 5873 5872 5872 5871 5871 5870 5870 5870 5870 5869 5869 5869 5868 5868 5869 5869 5869 5870 5870 5871 5871 5871 5872 5872 5873 5874 5875 5876 5877 5879 5880 5881 5883 5884 5887 5889 5888 5887 5888 5888 5889 5889 5889 5890 5892 5893 5893 5894 5895 5895 5895 5895 5896 5896 5896 5897 5897 5897 5897 5897 5897 5897 5898 5898 5899 5900
5878 5877 5876 5875 5874 5874 5874 5873 5874 5874 5873 5873 5873 5873 5873 5873 5873 5873 5873 5872 5871 5871 5871 5871 5870 5870 5870 5869 5869 5869 5869 5869 5869 5868 5868 5868 5868 5868 5869 5870 5870 5871 5871 5872 5872 5873 5874 5874 5875 5876 5877 5878 5879 5881 5882 5883 5886 5890 5888 5886 5887 5887 5887 5888 5888 5890 5891 5891 5891 5893 5894 5894 5894 5895 5896 5896 5897 5897 5897 5897 5897 5897 5896 5897 5897 5897 5898 5899
5876 5875 5874 5873 5872 5872 5871 5871 5870 5870 5870 5869 5870 5870 5870 5870 5870 5871 5871 5870 5869 5869 5869 5869 5869 5869 5869 5868 5868 5868 5868 5868 5868 5868 5868 5868 5868 5868 5869 5869 5870 5871 5871 5872 5873 5873 5874 5874 5875 5876 5877 5878 5879 5881 5881 5881 5885 5887 5885 5885 5886 5886 5887 5887 5887 5889 5890 5890 5891 5892 5893 5894 5894 5894 5895 5895 5896 5896 5896 5896 5896 5896 5896 5896 5896 5896 5897 5897
5874 5873 5872 5871 5870 5869 5869 5868 5867 5867 5867 5866 5867 5867 5868 5868 5868 5868 5869 5868 5867 5867 5867 5867 5867 5867 5867 5867 5867 5867 5867 5868 5868 5868 5867 5867 5867 5868 5868 5869 5869 5870 5871 5872 5872 5873 5874 5874 5875 5876 5877 5878 5879 5880 5880 5881 5883 5884 5883 5884 5885 5885 5886 5886 5886 5888 5889 5889 5890 5891 5892 5893 5893 5893 5893 5894 5895 5895 5895 5895 5895 5895 5895 5895 5895 5895 5895 5896
5872 5871 5870 5869 5868 5867 5866 5866 5865 5865 5864 5864 5864 5865 5865 5865 5866 5866 5867 5866 5865 5866 5866 5865 5865 5866 5866 5866 5866 5866 5867 5867 5867 5867 5867 5867 5867 5867 5868 5868 5869 5870 5871 5871 5872 5873 5873 5874 5875 5876 5877 5878 5878 5879 5880 5881 5882 5882 5882 5884 5884 5885 5885 5885 5886 5887 5888 5889 5889 5889 5890 5891 5892 5891 5891 5892 5893 5894 5894 5894 5894 5894 5894 5894 5894 5894 5894 5895
5870 5869 5868 5867 5866 5865 5865 5864 5864 5863 5863 5862 5862 5863 5863 5863 5863 5864 5864 5864 5863 5864 5864 5864 5864 5864 5865 5865 5865 5865 5866 5866 5866 5867 5867 5867 5867 5867 5867 5868 5868 5869 5870 5871 5872 5873 5873 5874 5874 5875 5876 5877 5877 5878 5879 5881 5881 5882 5882 5883 5884 5884 5885 5885 5886 5887 5888 5888 5887 5887 5888 5889 5891 5891 5890 5890 5891 5892 5892 5893 5893 5893 5893 5893 5893 5893 5893 5894
5869 5867 5866 5866 5865 5864 5863 5862 5862 5861 5861 5860 5860 5861 5861 5860 5861 5862 5862 5862 5862 5862 5862 5862 5862 5863 5863 5864 5864 5864 5865 5865 5865 5866 5866 5867 5867 5867 5867 5867 5868 5869 5870 5871 5872 5873 5873 5873 5874 5874 5875 5876 5877 5878 5879 5879 5880 5881 5882 5882 5883 5884 5885 5885 5886 5886 5887 5886 5886 5886 5887 5888 5890 5889 5888 5888 5889 5889 5890 5891 5892 5892 5892 5892 5892 5892 5893 5893
5867 5866 5865 5864 5863 5862 5861 5860 5860 5860 5859 5859 5859 5859 5858 5858 5859 5859 5859 5859 5859 5860 5860 5861 5861 5861 5862 5862 5863 5863 5864 5864 5864 5865 5866 5866 5866 5866 5866 5867 5868 5869 5871 5872 5872 5872 5872 5873 5873 5874 5875 5876 5877 5878 5878 5879 5879 5880 5881 5882 5883 5884 5884 5885 5885 5885 5885 5885 5885 5885 5885 5886 5887 5887 5886 5887 5887 5887 5888 5889 5890 5891 5891 5892 5891 5891 5892 5892
5865 5864 5863 5862 5861 5860 5860 5859 5858 5858 5857 5857 5857 5856 5856 5857 5856 5856 5856 5857 5857 5858 5859 5859 5859 5860 5860 5861 5861 5862 5862 5863 5863 5864 5865 5865 5866 5866 5866 5866 5867 5868 5870 5872 5872 5873 5873 5873 5873 5874 5875 5875 5877 5878 5879 5879 5879 5880 5881 5882 5884 5885 5885 5886 5886 5885 5885 5885 5883 5884 5885 5885 5886 5885 5885 5885 5885 5885 5886 5887 5888 5889 5890 5891 5891 5890 5891 5891
5863 5862 5862 5861 5860 5859 5858 5857 5856 5856 5855 5855 5855 5854 5854 5854 5854 5854 5853 5854 5855 5856 5857 5857 5858 5858 5859 5859 5860 5861 5861 5862 5862 5863 5864 5865 5865 5866 5866 5866 5867 5868 5869 5870 5872 5873 5875 5875 5874 5874 5875 5875 5876 5877 5879 5879 5879 5880 5880 5881 5883 5885 5885 5887 5887 5887 5886 5884 5882 5883 5884 5884 5884 5884 5883 5883 5883 5884 5884 5885 5886 5886 5888 5888 5889 5889 5889 5890
5861 5860 5860 5859 5858 5857 5856 5855 5854 5854 5853 5853 5853 5852 5852 5852 5851 5851 5851 5852 5853 5854 5855 5856 5856 5857 5857 5858 5859 5859 5860 5861 5861 5862 5863 5864 5864 5865 5866 5866 5867 5867 5868 5870 5871 5872 5874 5875 5873 5873 5874 5875 5876 5877 5878 5879 5880 5880 5880 5880 5881 5883 5883 5883 5884 5883 5883 5882 5881 5882 5882 5881 5882 5881 5881 5881 5881 5882 5882 5883 5884 5884 5885 5886 5887 5887 5888 5888
5859 5859 5858 5857 5856 5855 5854 5853 5852 5852 5851 5851 5850 5850 5850 5849 5849 5849 5849 5851 5851 5852 5853 5854 5854 5855 5856 5856 5857 5858 5859 5859 5860 5861 5862 5863 5864 5864 5865 5866 5866 5867 5868 5869 5870 5872 5873 5873 5872 5873 5874 5874 5875 5877 5877 5878 5879 5879 5879 5879 5880 5880 5880 5880 5880 5880 5881 5881 5881 5881 5880 5880 5880 5880 5880 5880 5880 5880 5881 5882 5882 5882 5883 5884 5885 5886 5886 5887
5857 5857 5856 5855 5854 5853 5852 5851 5850 5849 5849 5848 5848 5848 5847 5847 5847 5847 5847 5848 5849 5850 5851 5852 5852 5853 5854 5855 5856 5857 5857 5858 5859 5860 5861 5862 5862 5863 5865 5865 5866 5866 5867 5868 5869 5870 5872 5873 5871 5872 5873 5874 5875 5876 5877 5877 5878 5878 5879 5879 5878 5878 5879 5879 5879 5879 5879 5880 5880 5879 5879 5879 5879 5879 5879 5879 5879 5880 5880 5880 5880 5880 5881 5881 5883 5884 5885 5885
5855 5854 5854 5853 5852 5851 5850 5849 5848 5847 5846 5846 5845 5845 5845 5845 5845 5845 5845 5846 5847 5848 5849 5850 5850 5851 5852 5854 5854 5854 5856 5857 5857 5858 5860 5860 5861 5863 5864 5865 5865 5865 5866 5867 5868 5869 5871 5871 5871 5872 5873 5874 5874 5875 5876 5876 5876 5877 5878 5878 5877 5877 5877 5878 5879 5879 5879 5879 5879 5878 5878 5878 5878 5877 5877 5877 5878 5878 5878 5878 5879 5879 5879 5880 5880 5881 5882 5883
5853 5852 5851 5850 5850 5849 5848 5847 5846 5845 5844 5843 5843 5842 5842 5842 5843 5843 5843 5844 5845 5846 5847 5847 5848 5849 5851 5851 5851 5852 5854 5855 5856 5857 5858 5859 5860 5861 5863 5864 5864 5865 5865 5866 5867 5868 5870 5870 5871 5871 5872 5873 5873 5874 5875 5875 5875 5876 5876 5877 5877 5877 5877 5877 5877 5878 5878 5878 5878 5878 5877 5876 5876 5876 5876 5876 5876 5876 5877 5877 5877 5877 5877 5878 5878 5879 5880 5880
5850 5850 5849 5848 5847 5846 5846 5845 5844 5843 5842 5841 5840 5840 5839 5839 5840 5840 5841 5841 5842 5843 5844 5845 5846 5847 5848 5849 5849 5850 5852 5853 5854 5856 5857 5857 5859 5860 5861 5862 5863 5864 5864 5865 5866 5867 5868 5869 5869 5869 5871 5872 5872 5873 5874 5873 5874 5875 5875 5876 5876 5876 5876 5876 5876 5876 5877 5877 5876 5877 5877 5876 5874 5874 5874 5874 5874 5875 5875 5875 5875 5875 5875 5876 5876 5877 5878 5878
5848 5847 5847 5846 5845 5844 5843 5843 5842 5841 5840 5839 5838 5837 5837 5837 5837 5837 5838 5839 5839 5840 5841 5843 5844 5844 5845 5846 5847 5848 5849 5851 5852 5854 5855 5856 5858 5859 5860 5860 5861 5862 5863 5864 5865 5866 5867 5868 5868 5868 5870 5870 5869 5871 5872 5872 5873 5874 5874 5875 5875 5875 5875 5875 5875 5875 5875 5875 5875 5875 5875 5874 5872 5872 5873 5873 5873 5873 5873 5873 5873 5873 5873 5874 5874 5875 5876 5876
5845 5845 5844 5843 5842 5841 5840 5840 5839 5838 5837 5837 5836 5835 5835 5834 5834 5834 5835 5835 5836 5837 5838 5839 5841 5842 5843 5843 5844 5846 5847 5849 5850 5852 5853 5855 5856 5857 5857 5859 5860 5861 5861 5862 5863 5864 5865 5866 5867 5867 5868 5868 5868 5869 5870 5870 5871 5872 5873 5873 5874 5874 5874 5874 5874 5874 5874 5874 5873 5873 5873 5872 5870 5870 5871 5871 5871 5871 5871 5871 5871 5871 5871 5872 5872 5873 5874 5874
5842 5842 5841 5841 5840 5839 5838 5837 5836 5835 5835 5834 5833 5833 5832 5831 5831 5831 5832 5832 5833 5834 5835 5836 5838 5839 5840 5840 5842 5843 5845 5846 5848 5850 5851 5853 5854 5854 5856 5857 5858 5859 5860 5861 5861 5862 5863 5864 5865 5865 5866 5866 5866 5867 5868 5868 5869 5870 5871 5871 5872 5872 5873 5873 5873 5873 5872 5872 5871 5871 5871 5870 5868 5868 5869 5869 5869 5870 5870 5869 5869 5869 5869 5870 5870 5871 5872 5872
5839 5838 5838 5838 5837 5836 5835 5834 5833 5832 5832 5831 5831 5830 5829 5829 5828 5828 5829 5829 5830 5831 5832 5833 5834 5835 5836 5838 5839 5841 5842 5844 5846 5847 5849 5850 5851 5853 5854 5855 5856 5857 5858 5859 5859 5860 5861 5862 5863 5864 5864 5864 5865 5865 5865 5866 5867 5868 5868 5869 5870 5870 5870 5871 5871 5871 5871 5871 5870 5870 5871 5869 5867 5867 5867 5867 5868 5868 5868 5867 5867 5867 5867 5868 5868 5869 5869 5870
5836 5835 5834 5834 5834 5833 5832 5831 5830 5830 5829 5828 5828 5827 5826 5826 5825 5825 5825 5826 5827 5828 5829 5830 5831 5832 5833 5835 5837 5838 5840 5842 5843 5844 5846 5848 5849 5851 5852 5854 5855 5855 5856 5857 5858 5858 5859 5860 5861 5862 5862 5863 5863 5863 5863 5864 5865 5866 5866 5867 5867 5867 5868 5868 5868 5868 5868 5868 5868 5868 5869 5867 5865 5865 5865 5865 5865 5866 5866 5866 5865 5865 5866 5866 5866 5866 5867 5868
5832 5831 5831 5830 5830 5829 5828 5828 5827 5826 5826 5825 5825 5824 5823 5822 5822 5821 5821 5823 5824 5825 5825 5826 5827 5829 5830 5832 5834 5835 5837 5838 5840 5842 5844 5845 5847 5848 5850 5851 5852 5853 5854 5855 5856 5857 5857 5858 5859 5860 5860 5861 5861 5861 5862 5863 5863 5864 5864 5864 5865 5865 5865 5866 5866 5866 5866 5866 5866 5866 5866 5865 5863 5863 5863 5863 5863 5864 5863 5863 5863 5863 5864 5864 5864 5864 5864 5865
5827 5827 5827 5826 5825 5825 5825 5824 5823 5823 5822 5822 5821 5821 5820 5819 5819 5818 5818 5819 5820 5821 5822 5822 5824 5825 5826 5828 5830 5832 5833 5835 5837 5839 5841 5842 5844 5846 5847 5849 5850 5851 5852 5853 5854 5855 5856 5856 5857 5858 5858 5858 5859 5860 5861 5861 5861 5862 5862 5862 5862 5863 5863 5863 5864 5864 5864 5864 5864 5863 5863 5862 5861 5861 5861 5861 5861 5862 5861 5861 5861 5861 5861 5861 5861 5862 5862 5862
5823 5822 5822 5822 5821 5820 5820 5820 5819 5819 5818 5818 5817 5817 5816 5815 5815 5815 5814 5815 5817 5818 5818 5819 5820 5821 5823 5825 5827 5828 5830 5831 5833 5835 5837 5839 5841 5843 5844 5846 5847 5848 5849 5850 5851 5852 5854 5854 5854 5855 5856 5856 5857 5858 5859 5859 5859 5859 5859 5860 5860 5860 5861 5861 5861 5861 5861 5862 5861 5860 5860 5860 5859 5859 5859 5859 5859 5859 5859 5859 5858 5859 5859 5859 5859 5859 5859 5860
5818 5817 5817 5816 5816 5815 5815 5814 5814 5814 5814 5813 5813 5813 5812 5811 5811 5811 5811 5812 5812 5813 5814 5815 5815 5817 5819 5821 5823 5824 5826 5827 5829 5831 5833 5835 5837 5839 5841 5842 5844 5845 5846 5847 5848 5850 5851 5851 5851 5853 5854 5854 5854 5855 5856 5856 5857 5857 5857 5858 5858 5858 5858 5858 5858 5858 5858 5859 5858 5857 5857 5857 5857 5857 5857 5857 5857 5857 5856 5856 5856 5856 5856 5856 5856 5857 5857 5857
5812 5812 5811 5811 5810 5810 5809 5809 5809 5809 5809 5809 5808 5808 5808 5807 5807 5807 5807 5808 5808 5809 5810 5811 5812 5813 5815 5817 5819 5820 5821 5823 5825 5827 5829 5832 5833 5835 5837 5838 5840 5842 5843 5844 5845 5847 5848 5847 5848 5850 5851 5850 5851 5852 5852 5853 5854 5854 5854 5855 5855 5855 5855 5855 5855 5855 5855 5855 5855 5854 5855 5854 5854 5854 5854 5854 5855 5854 5854 5854 5853 5853 5853 5853 5854 5854 5854 5854
5807 5806 5806 5805 5804 5804 5803 5803 5804 5803 5803 5804 5804 5804 5803 5803 5803 5803 5803 5804 5804 5805 5806 5807 5808 5810 5811 5812 5813 5815 5817 5819 5820 5822 5825 5827 5829 5831 5832 5834 5836 5838 5840 5840 5842 5844 5845 5844 5845 5847 5847 5846 5847 5848 5849 5850 5850 5850 5851 5852 5852 5852 5852 5852 5852 5852 5852 5852 5851 5851 5852 5851 5851 5851 5851 5851 5852 5852 5851 5851 5851 5850 5850 5850 5851 5851 5851 5851
5802 5801 5800 5799 5799 5798 5797 5797 5798 5798 5798 5799 5799 5799 5799 5799 5799 5799 5799 5799 5800 5801 5802 5803 5804 5806 5807 5807 5808 5810 5813 5815 5816 5818 5821 5823 5825 5827 5829 5830 5833 5835 5836 5837 5839 5840 5840 5841 5842 5843 5844 5843 5842 5844 5845 5845 5845 5846 5847 5848 5848 5848 5849 5848 5848 5848 5848 5848 5848 5848 5848 5848 5848 5848 5848 5848 5848 5848 5848 5848 5848 5847 5847 5847 5847 5848 5848 5848